TimePST,TemperatureF,Dew PointF,Humidity,Sea Level PressureIn,VisibilityMPH,Wind Direction,Wind SpeedMPH,Gust SpeedMPH,PrecipitationIn,Events,Conditions,WindDirDegrees,DateUTC
12:48 AM,32.0,21.9,66,30.09,10.0,NNE,6.9,-,N/A,,Clear,30,2012-12-28 08:48:00
1:48 AM,36.0,19.0,50,30.06,10.0,East,12.7,-,N/A,,Clear,80,2012-12-28 09:48:00
2:48 AM,36.0,18.0,48,30.07,10.0,East,12.7,-,N/A,,Clear,80,2012-12-28 10:48:00
3:48 AM,36.0,17.1,46,30.05,10.0,East,13.8,-,N/A,,Clear,80,2012-12-28 11:48:00
4:48 AM,35.1,16.0,46,30.08,10.0,East,11.5,-,N/A,,Clear,80,2012-12-28 12:48:00
5:48 AM,36.0,16.0,44,30.09,10.0,East,13.8,-,N/A,,Clear,80,2012-12-28 13:48:00
6:48 AM,35.1,16.0,46,30.07,10.0,East,13.8,-,N/A,,Clear,80,2012-12-28 14:48:00
7:48 AM,-9999,-9999,N/A,-9999,-9999.0,North,-9999.0,-,N/A,,Unknown,0,2012-12-28 15:48:00
8:48 AM,39.9,17.1,40,30.09,10.0,East,13.8,-,N/A,,Clear,80,2012-12-28 16:48:00
9:48 AM,39.9,19.0,43,30.10,10.0,East,13.8,21.9,N/A,,Clear,80,2012-12-28 17:48:00
10:48 AM,43.0,19.9,40,30.08,10.0,ENE,9.2,17.3,N/A,,Clear,70,2012-12-28 18:48:00
11:48 AM,44.1,21.0,40,30.06,10.0,ENE,12.7,17.3,N/A,,Clear,70,2012-12-28 19:48:00
12:48 PM,45.0,19.9,37,30.06,10.0,ENE,13.8,19.6,N/A,,Clear,70,2012-12-28 20:48:00
1:48 PM,42.1,19.0,40,30.04,10.0,ENE,10.4,-,N/A,,Clear,60,2012-12-28 21:48:00
2:48 PM,-9999,-9999,N/A,-9999,-9999.0,North,-9999.0,-,N/A,,Unknown,0,2012-12-28 22:48:00
3:48 PM,41.0,19.0,41,30.04,10.0,ENE,6.9,-,N/A,,Clear,60,2012-12-28 23:48:00
4:48 PM,39.0,18.0,43,30.05,10.0,ENE,6.9,-,N/A,,Clear,70,2012-12-29 00:48:00
5:48 PM,46.9,19.0,33,30.03,10.0,Calm,Calm,-,N/A,,Clear,0,2012-12-29 01:48:00
6:48 PM,37.0,19.9,50,30.06,10.0,Calm,Calm,-,N/A,,Partly Cloudy,0,2012-12-29 02:48:00
7:48 PM,54.0,19.0,25,30.01,10.0,SE,4.6,-,N/A,,Mostly Cloudy,140,2012-12-29 03:48:00
8:48 PM,39.0,21.0,49,30.04,10.0,Calm,Calm,-,N/A,,Overcast,0,2012-12-29 04:48:00
9:48 PM,48.0,21.9,36,30.01,10.0,Variable,4.6,-,N/A,,Overcast,0,2012-12-29 05:48:00
10:48 PM,48.0,21.9,36,30.00,10.0,SE,3.5,-,N/A,,Partly Cloudy,140,2012-12-29 06:48:00
11:48 PM,37.9,19.9,48,30.01,10.0,East,4.6,-,N/A,,Clear,100,2012-12-29 07:48:00